Location: Lake Harris Campground
(43.9775°N, 74.1317°W)
Time: 21:59:50
(UTC-04:00)

ISS - All Passes

Search period start: 24 September 2016 00:00
Search period end: 04 October 2016 00:00
Orbit: 400 x 410 km, 51.6° (Epoch: 25 September)

Date Brightness Start Highest point End Pass type
(mag) Time Alt. Az. Time Alt. Az. Time Alt. Az.
24 Sep - 01:04:07 10° WNW 01:06:45 22° N 01:09:24 10° NE night (unlit)
24 Sep - 02:41:07 10° NW 02:43:58 26° NNE 02:46:49 10° ENE night (unlit)
24 Sep - 04:17:28 10° WNW 04:20:46 86° SSW 04:24:04 10° SE visible
24 Sep - 05:55:31 10° WSW 05:56:47 12° SW 05:58:04 10° SSW visible
24 Sep - 21:00:02 10° SSE 21:01:36 13° SE 21:03:11 10° ESE night (unlit)
24 Sep - 22:34:24 10° WSW 22:37:39 86° NNW 22:40:57 10° ENE night (unlit)
25 Sep - 00:11:43 10° WNW 00:14:29 25° NNW 00:17:18 10° NE night (unlit)
25 Sep - 01:49:03 10° NW 01:51:43 22° N 01:54:24 10° ENE night (unlit)
25 Sep - 03:25:27 10° NW 03:28:42 57° NNE 03:31:58 10° ESE night (unlit)
25 Sep - 05:02:23 10° W 05:04:58 21° SW 05:07:32 10° S visible
25 Sep - 21:42:28 10° SW 21:45:38 53° SE 21:48:50 10° ENE night (unlit)
25 Sep - 23:19:17 10° W 23:22:16 31° NNW 23:25:15 10° NE night (unlit)
26 Sep - 00:56:51 10° NW 00:59:26 21° N 01:02:01 10° NE night (unlit)
26 Sep - 02:33:27 10° NW 02:36:33 37° NNE 02:39:40 10° E night (unlit)
26 Sep - 04:09:58 10° WNW 04:13:04 37° SW 04:16:08 10° SSE night (unlit)
26 Sep - 20:50:50 10° SSW 20:53:41 29° SE 20:56:33 10° ENE visible
26 Sep - 22:26:56 10° W 22:30:04 44° NNW 22:33:15 10° NE night (unlit)
27 Sep - 00:04:32 10° WNW 00:07:08 21° N 00:09:44 10° NE night (unlit)
27 Sep - 01:41:26 10° NW 01:44:20 28° NNE 01:47:15 10° ENE night (unlit)
27 Sep - 03:17:47 10° WNW 03:21:03 69° SW 03:24:20 10° SE night (unlit)
27 Sep - 19:59:41 10° S 20:01:47 16° SE 20:03:54 10° E visible
27 Sep - 21:34:41 10° WSW 21:37:56 71° NNW 21:41:12 10° NE visible
27 Sep - 23:12:07 10° WNW 23:14:50 23° N 23:17:34 10° NE night (unlit)
28 Sep - 00:49:20 10° NW 00:52:04 23° N 00:54:47 10° ENE night (unlit)
28 Sep - 02:25:42 10° NW 02:28:59 69° NNE 02:32:16 10° ESE night (unlit)
28 Sep - 04:02:55 10° W 04:05:08 17° SW 04:07:23 10° S night (unlit)
28 Sep - 20:42:37 10° SW 20:45:51 66° SE 20:49:06 10° ENE visible
28 Sep - 22:19:39 10° WNW 22:22:33 28° NNW 22:25:28 10° NE night (unlit)
28 Sep - 23:57:09 10° NW 23:59:45 21° N 00:02:21 10° ENE night (unlit)
29 Sep - 01:33:39 10° NW 01:36:49 43° NNE 01:39:59 10° E night (unlit)
29 Sep - 03:10:18 10° WNW 03:13:13 30° SW 03:16:09 10° SSE night (unlit)
29 Sep - 19:50:49 10° SSW 19:53:50 36° SE 19:56:51 10° ENE visible
29 Sep - 21:27:14 10° W 21:30:19 38° NNW 21:33:24 10° NE visible
29 Sep - 23:04:51 10° NW 23:07:24 21° N 23:10:00 10° NE night (unlit)
30 Sep - 00:41:37 10° NW 00:44:35 31° NNE 00:47:34 10° E night (unlit)
30 Sep - 02:17:59 10° WNW 02:21:14 55° SW 02:24:26 10° SE night (unlit)
30 Sep - 18:59:25 10° S 19:01:52 20° SE 19:04:21 10° E daylight
30 Sep - 20:34:53 10° WSW 20:38:06 58° NNW 20:41:21 10° NE visible
30 Sep - 22:12:25 10° WNW 22:15:04 22° N 22:17:44 10° NE visible
30 Sep - 23:49:31 10° NW 23:52:17 25° NNE 23:55:04 10° ENE night (unlit)
01 Oct - 01:25:50 10° WNW 01:29:08 83° NNE 01:32:25 10° ESE night (unlit)
01 Oct - 03:03:28 10° W 03:05:12 14° SW 03:06:56 10° SSW night (unlit)
01 Oct - 18:09:00 10° SSE 18:09:58 11° SE 18:10:56 10° ESE daylight
01 Oct - 19:42:43 10° SW 19:45:58 83° SSE 19:49:14 10° ENE visible
01 Oct - 21:19:55 10° WNW 21:22:44 26° NNW 21:25:34 10° NE visible
01 Oct - 22:57:20 10° NW 22:59:57 22° N 23:02:34 10° ENE night (unlit)
02 Oct - 00:33:45 10° NW 00:36:58 50° NNE 00:40:10 10° ESE night (unlit)
02 Oct - 02:10:33 10° W 02:13:17 24° SW 02:16:00 10° SSE night (unlit)
02 Oct - 18:50:45 10° SW 18:53:52 45° SE 18:57:00 10° ENE daylight
02 Oct - 20:27:25 10° W 20:30:26 34° NNW 20:33:27 10° NE visible
02 Oct - 22:05:01 10° NW 22:07:34 21° N 22:10:08 10° NE visible
02 Oct - 23:41:40 10° NW 23:44:43 34° NNE 23:47:45 10° E night (unlit)
03 Oct - 01:18:07 10° WNW 01:21:16 43° SW 01:24:24 10° SE night (unlit)
03 Oct - 17:59:08 10° SSW 18:01:51 25° SE 18:04:34 10° E daylight
03 Oct - 19:35:00 10° WSW 19:38:10 49° NNW 19:41:22 10° NE visible
03 Oct - 21:12:35 10° WNW 21:15:11 21° N 21:17:48 10° NE visible
03 Oct - 22:49:33 10° NW 22:52:24 26° NNE 22:55:14 10° ENE night (unlit)
